This is the latest recevied weather packets stored in our database for station/object WE0DX-1. If no packets are shown the sender has not sent any weather packets the latest 10 day(s).
| Time | Temp. | Humidity | Pressure | Rain* | Wind** | Luminosity | Snow |
|---|---|---|---|---|---|---|---|
| 1777650574 | 14.44° C | 41% | 1018.4 hPa | 0 mm | - | 775 W/m² | - |
| 1777650271 | 15° C | 40% | 1018.3 hPa | 0 mm | - | 771 W/m² | - |
| 1777649968 | 15.56° C | 44% | 1018.4 hPa | 0 mm | - | 733 W/m² | - |
| 1777649666 | 15° C | 39% | 1018.2 hPa | 0 mm | - | 701 W/m² | - |
| 1777649361 | 15° C | 43% | 1018.3 hPa | 0 mm | - | 656 W/m² | - |
| 1777649059 | 15° C | 44% | 1018.1 hPa | 0 mm | - | 621 W/m² | - |
| 1777648756 | 13.89° C | 45% | 1018.1 hPa | 0 mm | - | 650 W/m² | - |
| 1777648452 | 13.89° C | 44% | 1018.3 hPa | 0 mm | - | 639 W/m² | - |
| 1777648149 | 13.89° C | 48% | 1018.3 hPa | 0 mm | - | 579 W/m² | - |
| 1777647845 | 13.89° C | 46% | 1018.1 hPa | 0 mm | - | 553 W/m² | - |
| 1777647541 | 13.89° C | 51% | 1018.2 hPa | 0 mm | - | 531 W/m² | - |
| 1777647238 | 13.33° C | 51% | 1018.3 hPa | 0 mm | - | 502 W/m² | - |
| 1777646935 | 12.78° C | 53% | 1018.2 hPa | 0 mm | - | 469 W/m² | - |
| 1777646631 | 12.78° C | 50% | 1018 hPa | 0 mm | - | 445 W/m² | - |
| 1777646327 | 12.78° C | 53% | 1018.2 hPa | 0 mm | - | 425 W/m² | - |
| 1777646024 | 12.78° C | 53% | 1018.2 hPa | 0 mm | - | 404 W/m² | - |
| 1777645720 | 12.78° C | 56% | 1018.2 hPa | 0 mm | - | 383 W/m² | - |
| 1777645417 | 12.22° C | 57% | 1018.3 hPa | 0 mm | - | 353 W/m² | - |
| 1777645113 | 12.22° C | 59% | 1018.1 hPa | 0 mm | - | 341 W/m² | - |
| 1777644810 | 11.67° C | 62% | 1018.2 hPa | 0 mm | - | 338 W/m² | - |
| 1777644508 | 11.11° C | 61% | 1018.2 hPa | 0 mm | - | 310 W/m² | - |
| 1777644203 | 10.56° C | 62% | 1018.2 hPa | 0 mm | - | 291 W/m² | - |
| 1777643900 | 10.56° C | 65% | 1018.1 hPa | 0 mm | - | 273 W/m² | - |
| 1777643598 | 10° C | 66% | 1018.2 hPa | 0 mm | - | 117 W/m² | - |
| 1777643295 | 10° C | 64% | 1018.2 hPa | 0 mm | - | 211 W/m² | - |
* Rain latest hour (hover to see other rain measurements)
** Current wind speed in m/s (hover to see current wind gust speed)